Regional Weather Roundup
Issued by NWS

Home | Current Version | Previous Version | Text Only | Print | Product List | Glossary Off
Versions: 1 2 3 4 5 6 7 8 9 10 11 12 13 14 15 16 17 18 19 20 21 22 23 24 25 26 27 28 29 30 31 32 33 34 35 36 37 38 39 40 41 42 43 44 45 46 47 48 49 50

721
ASUS43 KLSX 060407
RWRMO

WEATHER SUMMARY FOR MISSOURI
NATIONAL WEATHER SERVICE SPRINGFIELD MO
1000 PM CST MON DEC 05 2016

NOTE: "FAIR" INDICATES FEW OR NO CLOUDS BELOW 12,000 FEET WITH NO
       SIGNIFICANT WEATHER AND/OR OBSTRUCTIONS TO VISIBILITY.
       CURRENT SKY AND/OR WEATHER CONDITIONS ARE NOT AVAILABLE FOR
       CHILLICOTHE AND FARMINGTON.

MOZ001>031-035>038-043-044-053-054-060500-
...NORTHERN AND WESTERN MISSOURI...

CITY           SKY/WX    TMP DP  RH WIND       PRES   REMARKS
KANSAS CTY INT CLEAR     36  29  75 SE6       29.76R
KANSAS C DTWN  CLEAR     39  32  76 CALM      29.77R
LEE`S SUMMIT   CLEAR     37  32  82 CALM      29.76R
ST JOSEPH      CLEAR     35  32  88 CALM      29.76S
CHILLICOTHE      N/A     35  33  92 CALM      29.79S
KIRKSVILLE     FOG       35  35 100 SE10      29.80F VSB 1/4 WCI  27

$$
MOZ066>068-077>081-088>096-101>105-060500-
...SOUTHWEST MISSOURI...

CITY           SKY/WX    TMP DP  RH WIND       PRES   REMARKS
SPRINGFIELD    CLOUDY    40  36  86 SE9       29.73S
JOPLIN         PTCLDY    36  34  92 E3        29.74S
BRANSON        LGT RAIN  39  37  93 SE3       29.76R

$$
MOZ032>034-039>042-045>050-055>058-069>072-060500-
...CENTRAL MISSOURI...

CITY           SKY/WX    TMP DP  RH WIND       PRES   REMARKS
COLUMBIA       PTCLDY    37  35  92 E6        29.78F
JEFFERSON CITY PTCLDY    37  34  89 E6        29.79F
ROLLA          PTCLDY    36  33  89 E8        29.76F WCI  30
SEDALIA        CLOUDY    36  33  89 E6        29.77R
WHITEMAN AFB   PTCLDY    36  36 100 SE7       29.74S WCI  30
WARRENSBURG    PTCLDY    36  32  87 CALM      29.76R
OSAGE BEACH    PTCLDY    37  32  82 E5        29.77F

$$
MOZ051-052-059>065-060500-
...EAST CENTRAL MISSOURI...

CITY           SKY/WX    TMP DP  RH WIND       PRES   REMARKS
ST LOUIS INTL  MOCLDY    39  33  79 E9        29.84F
SPIRIT OF STL  CLOUDY    36  34  92 E6        29.84S
ST CHARLES     CLOUDY    39  36  89 SE12      29.85F

$$
MOZ072>076-082>087-097>100-106>115-060500-
...SOUTH CENTRAL AND SOUTHEAST MISSOURI...

CITY           SKY/WX    TMP DP  RH WIND       PRES   REMARKS
CAPE GIRARDEAU CLOUDY    41  36  82 NE7       29.80F
FARMINGTON     CLOUDY    39  36  89 E5        29.80F
POPLAR BLUFF   CLOUDY    41  38  89 NE8       29.79F
WEST PLAINS    CLOUDY    39  38  96 E3        29.76F FOG

$$



USA.gov is the U.S. government's official web portal to all federal, state and local government web resources and services.